Flag for Russia Weather past 2 weeks in Voronezh, Russia

Now
57 °F

Light rain. Low clouds.


Feels Like: 57 °F
Forecast: 51 / 64 °F
Wind: 1 mph from North

Location: Voronez

Current Time: Aug 28, 2014 at 9:21:54 AM

Latest Report: Aug 28, 2014 at 8:30 AM


Visibility: 3 mi

Pressure: 29.71 "Hg

Humidity: 94%

Dew point: 55 °F

Location of VoronezhLocation

Historic Weather in Voronezh — Graph

°F

Voronezh temperature yesterday

Maximum temperature yesterday: 68 °F (at 12:00 PM)
Minimum temperature yesterday: 52 °F (at 12:30 AM)
Average temperature yesterday: 60 °F

Past Weeks' High & Low Weather Summary

 TemperatureHumidityPressure
High99 °F (Aug 15, 4:00 PM)100% (Aug 20, 6:00 AM)30.07 "Hg (Aug 20, 6:00 AM)
Low48 °F (Aug 20, 6:00 AM)18% (Aug 15, 2:30 PM)29.65 "Hg (Aug 16, 3:00 AM)
Average68 °F59%29.89 "Hg
* Reported Aug 13 8:00 AM — Aug 28 8:00 AM, Voronezh, Weather by CustomWeather, © 2014

Note: Actual official high and low records may vary slightly from our data, if they occured in-between our weather recording intervals... More about our weather records

Advertising

Voronezh weather history for previous 24 hours

 ConditionsComfort  
Time TempWeatherWind HumidityBarometerVisibility
8:00 AM
Aug 28
57 °FScattered clouds.No wind94%29.71 "Hg4 mi
7:30 AM57 °FSprinkles. Fog.No wind94%29.71 "Hg2 mi
7:00 AM57 °FSprinkles. Fog.1 mph94%29.71 "Hg3 mi
6:30 AM57 °FSprinkles. Overcast.3 mph94%29.71 "Hg4 mi
6:00 AM57 °FSprinkles. Fog.6 mph94%29.71 "Hg3 mi
5:30 AM57 °FSprinkles. Fog.3 mph94%29.71 "Hg2 mi
5:00 AM57 °FSprinkles. Fog.No wind94%29.71 "Hg3 mi
4:30 AM57 °FSprinkles. Overcast.No wind94%29.74 "Hg3 mi
4:00 AM57 °FSprinkles. Overcast.No wind94%29.74 "Hg4 mi
3:30 AM57 °FSprinkles. Passing clouds.No wind94%29.74 "Hg6 mi
3:00 AM57 °FPassing clouds.No wind94%29.74 "HgN/A
2:30 AM57 °FSprinkles. Passing clouds.No wind88%29.74 "HgN/A
2:00 AM59 °FPassing clouds.No wind82%29.74 "HgN/A
1:30 AM59 °FPassing clouds.1 mph82%29.74 "HgN/A
1:00 AM59 °FPassing clouds.No wind82%29.74 "HgN/A
12:00 AM61 °FPassing clouds.3 mph72%29.74 "HgN/A
11:30 PM
Aug 27
63 °FPassing clouds.3 mph68%29.71 "HgN/A
11:00 PM63 °FPassing clouds.3 mph68%29.71 "HgN/A
10:30 PM64 °FPassing clouds.6 mph64%29.71 "HgN/A
9:30 PM64 °FPassing clouds.6 mph64%29.74 "HgN/A
9:00 PM64 °FPartly sunny.8 mph64%29.74 "HgN/A
8:00 PM66 °FPartly sunny.8 mph60%29.74 "HgN/A
6:30 PM66 °FPartly sunny.15 mph60%29.74 "HgN/A
6:00 PM66 °FOvercast.10 mph60%29.74 "HgN/A
5:30 PM66 °FOvercast.13 mph60%29.77 "HgN/A
5:00 PM66 °FOvercast.13 mph60%29.77 "HgN/A
4:30 PM66 °FOvercast.13 mph60%29.77 "HgN/A
4:00 PM64 °FOvercast.10 mph64%29.77 "HgN/A
3:30 PM63 °FSprinkles. Overcast.13 mph68%29.80 "HgN/A
3:00 PM63 °FSprinkles. Overcast.15 mph68%29.80 "HgN/A
2:30 PM61 °FOvercast.15 mph72%29.80 "HgN/A
2:00 PM61 °FSprinkles. Overcast.15 mph72%29.80 "HgN/A
1:30 PM61 °FSprinkles. Overcast.6 mph72%29.80 "HgN/A
1:00 PM61 °FSprinkles. Partly sunny.6 mph72%29.80 "HgN/A
12:30 PM64 °FSprinkles. Partly sunny.6 mph52%29.83 "HgN/A
12:00 PM68 °FSprinkles. Partly sunny.15 mph38%29.80 "HgN/A
11:30 AM66 °FPartly sunny.13 mph37%29.80 "HgN/A
11:00 AM66 °FPartly sunny.10 mph40%29.80 "HgN/A
10:30 AM64 °FPartly sunny.8 mph46%29.83 "HgN/A
10:00 AM63 °FPartly sunny.8 mph49%29.83 "HgN/A
9:30 AM59 °FPartly sunny.8 mph59%29.83 "HgN/A
9:00 AM57 °FSprinkles. Partly sunny.6 mph67%29.86 "HgN/A
Weather by CustomWeather, © 2014

See weather overviewHow to use our weather pages